User: anonymous
Location: Caltech
(34.1382°N, 118.1253°W)
Time: 14:12:17
(UTC-07:00)
Language:

RESURS DK-1 - Orbit

View from above orbital plane
View from above orbital plane
View from above satellite
View from above satellite

Ground track
Ground track

The orbit data is extracted from the following two-line orbital elements,

1 29228U 06021A   14245.50249602  .00000862  00000-0  75289-4 0  1821
2 29228 069.9377 167.8777 0002180 128.0504 282.4658 15.00780674455175
Epoch (UTC): 02 September 2014 12:03:35
Eccentricity: 0.0002180
inclination: 69.9377°
perigee height: 563 km
apogee height: 566 km
right ascension of ascending node: 167.8777°
argument of perigee: 128.0504°
revolutions per day: 15.00780674
mean anomaly at epoch: 282.4658°
orbit number at epoch: 45517

The dashed part of the orbit path shows where the satellite is in the earth's shadow,  

DLR